This is the latest recevied weather packets stored in our database for station/object NT9G. If no packets are shown the sender has not sent any weather packets the latest 10 day(s).
| Time | Temp. | Humidity | Pressure | Rain* | Wind** | Luminosity | Snow |
|---|---|---|---|---|---|---|---|
| 1777477327 | 13.89° C | 52% | 1016.2 hPa | 1.02 mm | - | - | - |
| 1777477027 | 13.89° C | 54% | 1016 hPa | 1.02 mm | - | - | - |
| 1777476727 | 13.89° C | 55% | 1016 hPa | 1.02 mm | - | - | - |
| 1777476426 | 13.89° C | 54% | 1016 hPa | 1.02 mm | - | - | - |
| 1777476131 | 13.89° C | 55% | 1016 hPa | 1.02 mm | - | - | - |
| 1777475826 | 13.89° C | 55% | 1016 hPa | 1.02 mm | - | - | - |
| 1777475526 | 13.89° C | 53% | 1016 hPa | 1.02 mm | - | - | - |
| 1777475225 | 13.89° C | 54% | 1015.9 hPa | 1.02 mm | - | - | - |
| 1777474925 | 13.89° C | 54% | 1015.9 hPa | 1.02 mm | - | - | - |
| 1777474629 | 13.33° C | 55% | 1015.8 hPa | 1.02 mm | - | - | - |
| 1777474324 | 13.33° C | 55% | 1015.8 hPa | 1.02 mm | - | - | - |
| 1777474024 | 13.33° C | 54% | 1015.8 hPa | 1.02 mm | - | - | - |
| 1777473724 | 13.33° C | 55% | 1015.9 hPa | 1.02 mm | - | - | - |
| 1777473424 | 13.33° C | 56% | 1015.8 hPa | 1.02 mm | - | - | - |
| 1777473123 | 13.33° C | 56% | 1015.7 hPa | 1.02 mm | - | - | - |
| 1777472823 | 13.33° C | 57% | 1015.7 hPa | 1.02 mm | - | - | - |
| 1777472523 | 12.78° C | 56% | 1015.7 hPa | 1.02 mm | - | - | - |
| 1777472222 | 13.33° C | 57% | 1015.8 hPa | 1.02 mm | - | - | - |
| 1777471922 | 12.78° C | 58% | 1015.8 hPa | 1.02 mm | - | - | - |
| 1777471622 | 12.78° C | 58% | 1015.8 hPa | 1.02 mm | - | - | - |
| 1777471322 | 12.78° C | 58% | 1015.7 hPa | 1.02 mm | - | - | - |
| 1777471021 | 12.22° C | 57% | 1015.7 hPa | 1.02 mm | - | - | - |
| 1777470721 | 12.22° C | 60% | 1015.7 hPa | 1.02 mm | - | - | - |
| 1777470421 | 12.22° C | 60% | 1015.7 hPa | 1.02 mm | - | - | - |
| 1777470120 | 12.22° C | 61% | 1015.6 hPa | 1.02 mm | - | - | - |
* Rain since midnight (hover to see other rain measurements)
** Current wind speed in m/s (hover to see current wind gust speed)